AO-07 1 07530U 74089B 18341.51526743 -.00000048 00000-0 -17676-4 0 9998 2 07530 101.7146 306.3944 0012299 1.5163 107.1742 12.53635660 16315 UO-11 1 14781U 84021B 18341.53579924 .00000085 00000-0 16551-4 0 9992 2 14781 97.6310 10.1803 0007376 227.3000 132.7594 14.83049072870137 LO-19 1 20442U 90005G 18341.38661847 -.00000002 00000-0 15393-4 0 9994 2 20442 98.6278 278.9356 0011888 4.9874 355.1426 14.32911993508698 HUBBLE 1 20580U 90037B 18341.59710191 .00000455 00000-0 16838-4 0 9998 2 20580 28.4705 48.6822 0002532 202.1688 306.5069 15.09140392371691 MET-2/21 1 22782U 93055A 18341.48846363 .00000020 00000-0 50321-5 0 9990 2 22782 82.5476 316.3898 0022405 4.1842 112.1644 13.83813539276148 AO-27 1 22825U 93061C 18341.53081886 -.00000007 00000-0 15263-4 0 9993 2 22825 98.8839 320.9698 0008048 194.9204 165.1741 14.30046265314343 IO-26 1 22826U 93061D 18341.50746331 -.00000005 00000-0 15836-4 0 9998 2 22826 98.8779 320.9618 0008732 184.2919 175.8189 14.30378660314536 FO-29 1 24278U 96046B 18341.48193323 .00000004 00000-0 39453-4 0 9990 2 24278 98.5134 156.3494 0350750 21.4143 340.1269 13.53087631101679 NOAA-15 1 25338U 98030A 18341.65692855 .00000019 00000-0 26506-4 0 9997 2 25338 98.7608 358.1336 0011510 84.6035 275.6457 14.25886455 69744 GO-32 1 25397U 98043D 18340.85428259 -.00000021 00000-0 98920-5 0 9996 2 25397 098.6682 278.5632 0000587 180.5097 179.6081 14.23656306060071 ISS 1 25544U 98067A 18341.73098808 .00001169 00000-0 24987-4 0 9991 2 25544 51.6405 233.8776 0005056 121.7451 343.7797 15.54059890145507 NO-44 1 26931U 01043C 18341.53597126 -.00000046 00000-0 14313-4 0 9991 2 26931 67.0497 142.1073 0006018 259.0883 100.9541 14.30525823897348 SO-50 1 27607U 02058C 18341.45303067 -.00000024 00000-0 17585-4 0 9999 2 27607 64.5552 280.3750 0079367 293.2329 66.0430 14.75502926858526 CO-55 1 27844U 03031E 18341.52822348 .00000050 00000-0 42291-4 0 9990 2 27844 98.6860 347.6232 0009054 226.0250 134.0182 14.22148257800830 CO-57 1 27848U 03031J 18341.53604482 .00000034 00000-0 35191-4 0 9995 2 27848 98.6942 348.0828 0008813 237.7962 122.2361 14.21747808800690 RS-22 1 27939U 03042A 18341.51265088 .00000139 00000-0 33562-4 0 9997 2 27939 98.0129 116.4398 0012024 324.4897 35.5505 14.66737741812223 NOAA-18 1 28654U 05018A 18341.59681242 -.00000001 00000-0 24742-4 0 9998 2 28654 99.1248 20.4012 0014223 4.4829 355.6467 14.12391592698262 CO-58 1 28895U 05043F 18341.38050419 .00000100 00000-0 28006-4 0 9992 2 28895 97.9316 126.0819 0015724 239.8343 120.1303 14.63608880699207 Falconsat-3 1 30776U 07006E 18341.15798352 .00002066 00000-0 60357-4 0 9992 2 30776 35.4354 244.9938 0002549 182.1626 177.9090 15.35300436650918 CO-65 1 32785U 08021C 18341.52213762 .00000195 00000-0 26733-4 0 9991 2 32785 97.5460 345.4197 0013118 177.1613 182.9681 14.88216630574955 AAUSAT2 1 32788U 08021F 18341.50472193 .00000099 00000-0 14175-4 0 9997 2 32788 97.5090 0.6854 0013100 124.1248 236.1218 14.94534411576063 DO-64 1 32789U 08021G 18341.36167258 .00001566 00000-0 10990-3 0 9995 2 32789 97.4915 31.6240 0013610 70.1141 290.1552 15.06501102577854 CO-66 1 32791U 08021J 18341.52734348 .00000325 00000-0 38415-4 0 9991 2 32791 97.5304 351.1341 0013990 155.7739 204.4140 14.90687051575338 RS-30 1 32953U 08025A 18341.56331584 .00000020 00000-0 75656-4 0 9994 2 32953 82.5046 264.8430 0018313 188.9793 171.0963 12.43086897478315 PRISM 1 33493U 09002B 18340.76317716 .00000518 00000-0 51195-4 0 9996 2 33493 098.1193 249.3743 0015918 103.8759 256.4237 14.96426112536159 NOAA-19 1 33591U 09005A 18341.56952217 .00000014 00000-0 32961-4 0 9999 2 33591 99.1622 323.2091 0013597 196.7022 163.3703 14.12321804506644 TISAT-1 1 36799U 10035E 18341.34152235 .00000448 00000-0 51479-4 0 9991 2 36799 98.1296 122.4308 0012303 6.4428 353.6945 14.90950144455954 JUGNU 1 37839U 11058B 18341.55694940 .00000294 00000-0 14832-4 0 9991 2 37839 19.9624 65.9520 0019199 358.3553 123.3425 14.12636082369912 SRMSAT 1 37841U 11058D 18341.53336038 .00000286 00000-0 11797-4 0 9991 2 37841 19.9714 118.8744 0011740 234.9936 206.9925 14.10620395369381 AO-71 1 37854U 11061E 18341.38414465 .00001281 00000-0 73895-4 0 9996 2 37854 101.7115 135.1480 0162162 279.6426 78.6499 15.05922049387896 HRBE 1 37855U 11061F 18341.36120162 .00001284 00000-0 72812-4 0 9994 2 37855 101.7239 132.5700 0175017 289.5190 68.7193 15.04915420387694 ALMASAT-1 1 38078U 12006B 18341.46707971 .00040321 42957-5 29007-3 0 9996 2 38078 69.4327 93.8703 0207360 202.5917 226.8570 15.50322209367424 HORYU-2 1 38340U 12025D 18341.53163703 .00000183 00000-0 34839-4 0 9996 2 38340 98.3522 9.0818 0011935 25.2855 334.8935 14.75638056352674 RS-40 1 38735U 12041C 18341.46735197 .00000021 00000-0 79391-4 0 9999 2 38735 82.4764 348.5767 0016277 299.4110 60.5362 12.42577259288552 BEESAT-3 1 39135U 13015F 18341.35414554 .00000826 00000-0 51361-4 0 9995 2 39135 64.8690 302.1970 0010623 261.2991 98.6932 15.17055475310911 BEESAT-2 1 39136U 13015G 18341.51766042 .00000839 00000-0 52812-4 0 9992 2 39136 64.8702 304.9325 0010019 250.4284 109.5760 15.16508438310871 ZACUBE-1 1 39417U 13066B 18341.34707998 .00000201 00000-0 31868-4 0 9997 2 39417 97.5738 0.6150 0057816 308.7333 50.8721 14.81021659272428 TRITON-1 1 39427U 13066M 18341.53238607 .00000197 00000-0 39085-4 0 9998 2 39427 97.6558 326.1123 0115258 64.3531 296.9528 14.67751414270009 GOMX-1 1 39430U 13066Q 18341.52559494 .00000149 00000-0 35595-4 0 9990 2 39430 97.7194 306.1219 0151983 143.0732 218.1036 14.59162129268431 LO-74 1 39440U 13066AA 18341.51819479 .00000207 00000-0 35832-4 0 9991 2 39440 97.5987 346.4336 0080196 353.6043 6.4136 14.75761920271488 AO-73 1 39444U 13066AE 18341.52064397 .00000249 00000-0 37172-4 0 9992 2 39444 97.5736 2.5173 0056884 302.7107 56.8630 14.81822582271326 SPROUT 1 39770U 14029E 18341.53461916 .00000751 00000-0 89813-4 0 9990 2 39770 97.8828 81.2229 0009090 9.4529 350.6857 14.87088213246122 DUCHIFAT-1 1 40021U 14033M 18341.34168768 .00000416 00000-0 48489-4 0 9996 2 40021 97.9184 260.3721 0012427 333.7103 26.3483 14.90463230242741 NANOSATCBR1 1 40024U 14033Q 18341.46963628 .00000331 00000-0 40464-4 0 9991 2 40024 97.9102 258.3812 0011765 336.5167 23.5511 14.89703039242672 EO-79 1 40025U 14033R 18341.55109446 .00000224 00000-0 29919-4 0 9995 2 40025 97.9045 256.5585 0012053 341.4999 18.5778 14.88826502242584 DTUSAT-2 1 40030U 14033W 18341.22606170 .00000234 00000-0 31250-4 0 9993 2 40030 97.8980 254.6944 0011432 338.1153 21.9573 14.88427014242474 EO-80 1 40032U 14033Y 18341.35836324 .00000250 00000-0 33091-4 0 9998 2 40032 97.8986 254.8280 0011375 338.2978 21.7755 14.88366812242488 ANTELSAT 1 40034U 14033AA 18341.58336158 .00000234 00000-0 42171-4 0 9996 2 40034 97.7850 211.6335 0058937 0.6721 359.4557 14.74012084240227 VELOX-1 1 40057U 14034E 18341.27430544 .00000242 00000-0 41502-4 0 9998 2 40057 98.2174 95.4730 0012143 130.2821 229.9451 14.77543054239203 DAURIA DX 1 1 40071U 14037C 18341.56011914 .00000098 00000-0 20032-4 0 9999 2 40071 98.3988 120.9256 0009609 120.8029 239.4133 14.81214849238662 UKUBE-1 1 40074U 14037F 18341.38529039 .00000210 00000-0 32491-4 0 9992 2 40074 98.4086 127.6726 0005337 112.9005 247.2806 14.83925693238988 HODOYOSHI-1 1 40299U 14070B 18341.45510100 .00000570 00000-0 27060-4 0 9990 2 40299 97.3676 60.0805 0013328 9.8476 118.6715 15.23129061226856 CHUBUSAT-1 1 40300U 14070C 18341.22687014 .00000654 00000-0 31690-4 0 9994 2 40300 97.3497 55.1104 0020929 19.2285 44.8221 15.21821560226599 QSAT-EOS 1 40301U 14070D 18341.47220233 .00001451 00000-0 59976-4 0 9991 2 40301 97.3469 57.3989 0026285 5.4134 58.6810 15.25309569226833 FIREBIRD FU3 1 40377U 15003B 18341.53016421 .00002693 00000-0 11106-3 0 9991 2 40377 99.0895 277.6768 0129802 14.2871 346.1972 15.17920792212618 FIREBIRD FU4 1 40378U 15003C 18341.51809289 .00002797 00000-0 11504-3 0 9999 2 40378 99.0898 277.7287 0130029 14.2161 346.2671 15.17927668212610 GRIFEX 1 40379U 15003D 18341.43173211 .00001862 00000-0 83682-4 0 9999 2 40379 99.0891 272.8531 0137674 29.6767 331.2181 15.14843394212325 NO-84 1 40654U 15025D 18340.34034783 .00006579 00000-0 10327-3 0 04763 2 40654 054.9917 336.9513 0148248 186.8835 173.0157 15.43625810082405 NO-83 1 40655U 15025E 18340.39099042 .00022905 00000-0 19275-3 0 05637 2 40655 054.9726 257.2677 0083701 233.8371 125.4866 15.65261032083179 DEORBITSAIL 1 40719U 15032E 18341.46807333 .00000347 00000-0 56992-4 0 9992 2 40719 97.9266 231.9814 0015609 205.8398 154.2034 14.76582949183743 NUDT-PHONESAT 1 40900U 15049B 18341.47879069 .00001999 00000-0 90431-4 0 9998 2 40900 97.4402 347.8080 0014295 136.5921 19.2603 15.22007934178267 XW-2A 1 40903U 15049E 18341.40215711 .00001870 00000-0 47065-4 0 9995 2 40903 97.3657 17.8536 0015264 120.3530 4.7884 15.41135176180472 XW-2C 1 40906U 15049H 18341.41592413 .00000716 00000-0 41314-4 0 9995 2 40906 97.4637 341.7991 0015998 143.7810 322.4927 15.15421752177723 XW-2D 1 40907U 15049J 18341.41626909 .00000745 00000-0 42626-4 0 9993 2 40907 97.4616 341.4802 0015311 141.0546 325.7186 15.15589813177732 LILACSAT-2 1 40908U 15049K 18341.44959626 .00000070 00000-0 74769-5 0 9997 2 40908 97.4734 340.6416 0016918 145.4647 12.8655 15.13648076177572 XW-2E 1 40909U 15049L 18341.46013036 .00000920 00000-0 49301-4 0 9993 2 40909 97.4577 343.8904 0014881 138.8433 19.1349 15.17378359177883 XW-2F 1 40910U 15049M 18341.29108137 .00000990 00000-0 53537-4 0 9996 2 40910 97.4592 342.9860 0015849 136.7083 345.4346 15.16894499177694 XW-2B 1 40911U 15049N 18341.45012804 .00000423 00000-0 25759-4 0 9996 2 40911 97.4637 342.1103 0015417 142.3892 16.8251 15.15525553177638 DCBB 1 40912U 15049P 18341.61188885 .00001217 00000-0 60977-4 0 9991 2 40912 97.4506 346.5383 0016642 122.3674 355.1268 15.19158092177999 TW-1C 1 40926U 15051B 18341.57531307 .00008921 00000-0 15005-3 0 9995 2 40926 97.1648 23.2379 0009836 15.4476 142.3154 15.51914080180178 TW-1A 1 40928U 15051D 18341.54363865 .00002841 00000-0 73973-4 0 9990 2 40928 97.1683 12.0266 0013196 58.0455 98.3550 15.39622715179449 IO-86 1 40931U 15052B 18339.55331408 .00000636 00000-0 -55106-6 0 9992 2 40931 6.0014 8.0604 0014103 274.8145 85.0413 14.76592026172371 LQSat 1 40958U 15057A 18341.51666115 .00000014 00000-0 97845-5 0 9995 2 40958 97.9237 50.6850 0019198 137.8941 222.3752 14.73058960170363 AO-85 1 40967U 15058D 18340.39125223 .00000248 00000-0 43090-4 0 05291 2 40967 064.7792 028.4143 0213889 261.9152 095.7639 14.75832079079069 ATHENOXAT-1 1 41168U 15077C 18340.82116826 .00001869 00000-0 64670-4 0 9991 2 41168 14.9789 196.4338 0011789 278.2278 171.2354 15.13181689164564 ChubuSat-2 1 41338U 16012B 18341.26046189 .00000328 00000-0 18903-4 0 9990 2 41338 31.0036 293.9673 0013771 347.0815 12.9467 15.00064871153842 ChubuSat-3 1 41339U 16012C 18341.25295998 .00000297 00000-0 16356-4 0 9999 2 41339 31.0114 292.3655 0013622 353.5577 6.4898 15.00246062153834 Horyu-4 1 41340U 16012D 18341.21414286 .00000482 00000-0 30024-4 0 9994 2 41340 31.0054 285.8195 0013919 9.3325 350.7567 15.01122261153913 OUFTI-1 1 41458U 16025C 18341.44234290 .00000687 00000-0 40104-4 0 9995 2 41458 98.1195 53.4297 0166572 286.5564 71.7417 15.05189347143503 e-st@r-II 1 41459U 16025D 18341.41601748 .00001862 00000-0 10059-3 0 9990 2 41459 98.1191 53.1651 0168403 287.4756 70.8131 15.04885167143470 AAUSAT4 1 41460U 16025E 18341.21813604 .00002348 00000-0 12366-3 0 9999 2 41460 98.1136 53.7675 0159102 282.7321 75.6167 15.06518635143539 LO-87 1 41557U 16033B 18341.52798276 .00001126 00000-0 45628-4 0 9997 2 41557 97.4301 65.1322 0012458 258.6468 101.3371 15.26704887140612 NuSat2 1 41558U 16033C 18341.47465750 .00001192 00000-0 45536-4 0 9991 2 41558 97.4321 65.5110 0011489 262.0404 97.9532 15.28587730140613 Lapan A3 1 41603U 16040E 18341.46126975 .00000055 00000-0 57541-5 0 9999 2 41603 97.3907 39.6183 0013621 2.1937 123.8385 15.19640194136398 Swayam 1 41607U 16040J 18340.64813813 .00001331 00000-0 59949-4 0 9997 2 41607 097.3933 041.0836 0013452 000.5341 359.5907 15.22733906136347 Pratham 1 41783U 16059A 18341.11111618 .00000064 00000-0 21752-4 0 9992 2 41783 98.0966 39.6758 0032289 272.5277 87.2228 14.62959615117249 AlSat 1N 1 41789U 16059G 18341.40093519 .00000054 00000-0 19327-4 0 9993 2 41789 98.0987 41.5430 0026976 262.3553 97.4586 14.64199745117362 ScatSat 1 41790U 16059H 18341.62104262 -.00000405 00000-0 -91214-4 0 9994 2 41790 98.2377 26.0573 0016962 281.5428 78.3739 14.50880095116337 TY-1 1 41844U 16066D 18341.53982668 .00001447 00000-0 62933-4 0 9997 2 41844 97.4060 346.2657 0016255 142.2195 332.9171 15.23758537115273 Pegasus-1 1 41846U 16066F 18341.30964948 .00000311 00000-0 56618-4 0 9997 2 41846 98.7369 13.1804 0368937 93.0212 271.3248 14.37453295108770 CAS-2T 1 41847U 16066G 18341.51820543 .00000090 00000-0 23212-4 0 9991 2 41847 98.7322 13.8957 0367125 89.4436 274.8797 14.37942122109232 TO-89 1 41932U 98067KU 18341.46366638 .00198244 27804-4 36284-3 0 9997 2 41932 51.6216 156.6350 0004279 223.8851 136.1820 16.00904331108242 EO-88 1 42017U 17008BX 18340.70059118 .00001372 00000-0 57913-4 0 9999 2 42017 097.4292 044.5913 0007680 125.4565 234.7391 15.24953484100357 HAVELSAT 1 42700U 98067LH 18341.50355785 .00067750 00000-0 26605-3 0 9995 2 42700 51.6246 180.4231 0005144 195.8309 164.2535 15.86264488 89372 SOMP2 1 42701U 98067LJ 18341.47721715 .00050676 00000-0 22965-3 0 9996 2 42701 51.6307 184.1011 0004719 182.9599 177.1377 15.83391052 89319 PHOENIX 1 42706U 98067LP 18341.46507250 .00028459 00000-0 16454-3 0 9996 2 42706 51.6267 187.7996 0002789 147.6357 212.4815 15.78374951 89183 X-CubeSat 1 42707U 98067LQ 18341.52277587 .00091958 00000-0 30272-3 0 9999 2 42707 51.6241 178.1878 0004001 189.7860 170.3068 15.89716589 89309 qbee 1 42708U 98067LR 18341.52867463 .00064952 00000-0 25914-3 0 9999 2 42708 51.6249 181.3633 0003434 187.1539 172.9417 15.85964244 89223 ZA-AeroSat 1 42713U 98067LU 18341.59142114 .00037930 00000-0 23340-3 0 9998 2 42713 51.6333 191.6672 0003592 140.6769 219.4493 15.76812108 88809 SpaceCube 1 42717U 98067LY 18341.50874572 .00063268 00000-0 25587-3 0 9991 2 42717 51.6207 181.8881 0004636 193.1276 166.9607 15.85687070 88296 Hoopoe 1 42718U 98067LZ 18341.54733545 .00334255 61259-4 49980-3 0 9997 2 42718 51.6186 170.7159 0005808 234.4076 125.6394 16.04182115 88441 NJUST-1 1 42722U 98067MB 18341.49152993 .00029151 00000-0 19701-3 0 9995 2 42722 51.6367 195.3967 0005630 158.7253 273.2622 15.74790810 87812 LO-90 1 42725U 98067ME 18341.40155351 .00055707 00000-0 27217-3 0 9997 2 42725 51.6340 187.9984 0005114 169.3658 252.4041 15.81738374 87815 nSIGHT1 1 42726U 98067MF 18341.05882745 .00007729 00000-0 82479-4 0 9996 2 42726 51.6372 213.8584 0005707 153.5507 206.5780 15.65029815 87446 SNUSAT 1B 1 42727U 98067MG 18341.09594502 .00047387 00000-0 23608-3 0 9994 2 42727 51.6295 189.7471 0006138 153.5183 206.6134 15.81377479 87721 QBITO 1 42728U 98067MH 18341.52256710 .00074146 00000-0 27488-3 0 9992 2 42728 51.6293 181.4402 0004535 191.6315 168.4586 15.87411156 87714 Aalto-2 1 42729U 98067MJ 18341.42748623 .00087264 00000-0 29843-3 0 9993 2 42729 51.6237 180.6371 0004517 195.9269 164.1595 15.88974982 87720 SUSat 1 42730U 98067MK 18340.98105089 .00052265 00000-0 24468-3 0 9999 2 42730 51.6305 188.2783 0004288 177.3068 182.7958 15.82687837 87571 PolyITAN-2-SAU 1 42732U 98067MM 18341.49988579 .00088180 00000-0 29679-3 0 9995 2 42732 51.6265 179.6139 0005092 168.9137 191.1981 15.89285171 87789 Aoxiang-1 1 42735U 98067MQ 18341.46597007 .00029203 00000-0 19093-3 0 9997 2 42735 51.6310 194.4346 0006212 162.8299 264.9052 15.75551153 88954 BeEagleSat 1 42736U 98067MR 18341.50618466 .00035304 00000-0 19426-3 0 9995 2 42736 51.6293 189.5439 0006250 168.5645 191.5499 15.79338917 87711 CAS-4B 1 42759U 17034B 18341.51531310 .00000219 00000-0 26996-4 0 9996 2 42759 43.0175 211.6269 0008853 115.2206 314.1305 15.09437485 81649 CAS-4A 1 42761U 17034D 18341.48717994 .00000144 00000-0 22335-4 0 9999 2 42761 43.0183 211.4440 0009264 116.1000 307.3228 15.09513127 81634 UCLSat 1 42765U 17036A 18341.37537854 .00001144 00000-0 52679-4 0 9993 2 42765 97.3798 38.2605 0011626 181.2003 178.9208 15.22269504 81059 NIUSat 1 42766U 17036B 18341.47016408 .00000897 00000-0 43754-4 0 9990 2 42766 97.3797 37.2404 0016102 171.9145 188.2353 15.20731992 80868 LituanicaSAT 2 1 42768U 17036D 18341.47308507 .00001799 00000-0 81523-4 0 9994 2 42768 97.3822 37.9096 0015733 173.1742 186.9711 15.22039681 80916 Aalto 1 1 42775U 17036L 18341.52987572 .00000668 00000-0 33127-4 0 9994 2 42775 97.3787 37.5770 0014404 171.1323 189.0170 15.21022083 80848 URSA MAIOR 1 42776U 17036M 18341.44016735 .00000770 00000-0 37599-4 0 9991 2 42776 97.3794 37.5803 0014208 171.5019 188.6460 15.21131505 80838 Max Valier Sat 1 42778U 17036P 18341.41270634 .00000888 00000-0 42292-4 0 9996 2 42778 97.3826 38.0704 0012723 175.4331 184.7024 15.21648957 80840 Pegasus 1 42784U 17036V 18340.77814915 .00001075 00000-0 49990-4 0 9998 2 42784 097.3802 037.5548 0012103 183.7774 176.3373 15.22053046080761 NUDATSat 1 42787U 17036Y 18341.54153268 .00001485 00000-0 66449-4 0 9997 2 42787 97.3830 38.6994 0010186 181.4047 178.7163 15.22807471 80749 SUCHAI 1 1 42788U 17036Z 18341.16137542 .00001237 00000-0 56499-4 0 9992 2 42788 97.3803 38.1118 0011754 181.8346 178.2850 15.22390151 80909 SKCUBE 1 42789U 17036AA 18340.90377787 .00001163 00000-0 53424-4 0 9994 2 42789 097.3801 037.8344 0011569 182.6444 177.4733 15.22322393080787 VZLUSAT 1 1 42790U 17036AB 18340.93771380 .00001541 00000-0 68804-4 0 9994 2 42790 097.3811 038.1105 0011228 182.0614 178.0578 15.22816224080802 VENTA 1 1 42791U 17036AC 18340.94655714 .00001088 00000-0 50121-4 0 9997 2 42791 097.3800 037.9245 0011214 182.8203 177.2972 15.22351281080783 Robusta 1B 1 42792U 17036AD 18341.44670898 .00001140 00000-0 52197-4 0 9998 2 42792 97.3800 38.4675 0011198 181.3112 178.8097 15.22481883 80889 D-SAT 1 42794U 17036AF 18341.13120433 .00000223 00000-0 24625-4 0 9997 2 42794 97.5690 29.0395 0128246 66.8845 294.5830 14.90981108 79493 BIRD-J 1 42820U 98067MU 18340.99655014 .00037457 00000-0 21872-3 0 9990 2 42820 51.6305 195.9240 0003619 141.7102 218.4156 15.78000922 81047 BIRD-G 1 42821U 98067MV 18341.01387622 .00033880 00000-0 21077-3 0 9995 2 42821 51.6269 197.5457 0003510 134.7705 225.3581 15.76621120 81008 BIRD-M 1 42822U 98067MW 18341.51924851 .00033015 00000-0 19865-3 0 9994 2 42822 51.6323 194.1835 0004144 145.7204 214.4065 15.77388471 81098 BIRD-B 1 42823U 98067MX 18341.49552265 .00032722 00000-0 19423-3 0 9992 2 42823 51.6299 194.0406 0005566 139.8910 220.2503 15.77691829 81097 BIRD-N 1 42824U 98067MY 18340.98456213 .00035546 00000-0 21561-3 0 9995 2 42824 51.6338 197.4185 0005835 143.7961 216.3435 15.77157620 80996 TechnoSat 1 42829U 17042E 18341.52584692 .00000270 00000-0 32818-4 0 9992 2 42829 97.5819 237.1842 0013967 349.1601 10.9315 14.90896361 76158 TOMSK-TPU 120 1 42910U 98067MZ 18341.46767333 .00020812 00000-0 16977-3 0 9998 2 42910 51.6356 204.9945 0006496 140.4209 282.6250 15.70557056 74559 TANYUSHA 1 1 42911U 98067NA 18341.46834620 .00028551 00000-0 20792-3 0 9991 2 42911 51.6344 202.0247 0006168 141.8353 282.8257 15.73055066 74570 TANYUSHA 2 1 42912U 98067NB 18341.49739100 .00025500 00000-0 19593-3 0 9990 2 42912 51.6400 203.7472 0005744 146.7087 282.1526 15.71858172 74578 TNS 0-2 1 42914U 98067ND 18341.52132211 .00018020 00000-0 14830-3 0 9994 2 42914 51.6328 205.5604 0005589 145.3438 214.7925 15.70463162 74549 QIKCOM-1 1 42983U 98067NF 18341.52340798 .00003040 00000-0 47323-4 0 9991 2 42983 51.6389 228.9813 0004816 120.5437 239.6031 15.57431258 63222 AO-91 1 43017U 17073E 18341.50518492 .00000620 00000-0 53360-4 0 9993 2 43017 97.7169 265.4913 0260405 67.5199 295.3361 14.78292210 56714 EcAMSat 1 43019U 98067NG 18341.53765218 .00005296 00000-0 73371-4 0 9998 2 43019 51.6398 226.8455 0005648 101.7650 258.3977 15.58909999145573 PICSAT 1 43132U 18004X 18341.44787407 .00001161 00000-0 52287-4 0 9991 2 43132 97.5144 44.4347 0009210 203.6935 156.3878 15.23075168 50080 AO-92 1 43137U 18004AC 18341.36684415 .00000921 00000-0 42138-4 0 9999 2 43137 97.5138 44.3736 0008707 205.3792 154.7018 15.23064982 50067 TianYi 2 1 43155U 18008A 18341.44328524 .00000332 00000-0 23762-4 0 9996 2 43155 97.5095 52.8526 0016291 269.7984 218.9002 15.10826743 48648 Zhou Enlai 1 43156U 18008B 18341.55544236 .00001157 00000-0 74382-4 0 9999 2 43156 97.5149 52.8922 0013428 266.6923 206.6368 15.10316206 48644 TianYi 6 1 43158U 18008D 18341.21127284 .00000931 00000-0 61163-4 0 9996 2 43158 97.5088 52.2455 0012651 265.3712 154.1157 15.09978124 48567 S-Net G 1 43186U 18014G 18341.33353923 -.00000074 00000-0 -13970-5 0 9992 2 43186 97.7170 247.4822 0009950 296.2489 63.7709 14.96543661 46217 S-Net H 1 43187U 18014H 18341.33336508 -.00000080 00000-0 -19316-5 0 9990 2 43187 97.7168 247.4751 0009945 296.1794 63.8404 14.96544066 46211 S-Net J 1 43188U 18014J 18341.33320180 -.00000089 00000-0 -26699-5 0 9991 2 43188 97.7170 247.4852 0009946 296.2582 63.7617 14.96544998 46213 S-Net K 1 43189U 18014K 18341.46716324 -.00000066 00000-0 -70256-6 0 9999 2 43189 97.7167 247.6055 0009932 295.6609 64.3586 14.96543652 44783 FMN 1 1 43192U 18015A 18341.54184222 .00002104 00000-0 90964-4 0 9998 2 43192 97.3763 107.1789 0015332 252.4239 107.5325 15.23477975 46902 Shaonian Xing 1 43199U 18015H 18341.56474354 .00001393 00000-0 59944-4 0 9997 2 43199 97.3553 106.7037 0015917 266.3489 93.5929 15.24186319 46945 1KUNS-PF 1 43466U 98067NP 18341.09031159 .00012401 00000-0 15800-3 0 9993 2 43466 51.6388 232.0899 0001642 104.4821 255.6355 15.59741544 32643 UBAKUSAT 1 43467U 98067NQ 18341.08877219 .00008770 00000-0 11872-3 0 9997 2 43467 51.6382 232.8289 0003307 72.1849 287.9504 15.58564703 32643 Irazu 1 43468U 98067NR 18341.09932359 .00015827 00000-0 19313-3 0 9995 2 43468 51.6387 231.3993 0001639 108.8359 251.2812 15.60641446132644 EnduroSat One 1 43551U 98067NZ 18340.92663348 .00010628 00000-0 14702-3 0 9999 2 43551 51.6388 235.4829 0007264 134.0329 226.1262 15.57702694 22826 EQUISat 1 43552U 98067PA 18340.94147781 .00008733 00000-0 12373-3 0 9996 2 43552 051.6387 235.5841 0007472 134.5248 225.6355 15.57325409022784 UiTMSat 1 1 43589U 98067PD 18341.11967082 .00010337 00000-0 14696-3 0 9993 2 43589 51.6386 235.2695 0006784 142.0644 218.0826 15.56996807 18549 Maya 1 1 43590U 98067PE 18340.92503375 .00010053 00000-0 14300-3 0 9991 2 43590 51.6387 236.2202 0006858 141.9717 218.1760 15.57018082 18446 Bhutan 1 1 43591U 98067PF 18341.11455283 .00010405 00000-0 14751-3 0 9999 2 43591 51.6386 235.2364 0006900 144.3606 215.7848 15.57064841 18473 SiriusSat 1 1 43595U 98067PG 18341.53508936 .00009736 00000-0 14102-3 0 9998 2 43595 51.6386 233.5407 0004723 104.0345 256.1172 15.56577946 17719 SiriusSat 2 1 43596U 98067PH 18341.54573836 .00009718 00000-0 14157-3 0 9991 2 43596 51.6394 233.6227 0005371 106.4342 253.7240 15.56421567 17719 Tanusha-3 1 43597U 98067PJ 18340.95284646 .00010708 00000-0 15280-3 0 9993 2 43597 051.6375 236.3905 0004956 115.1131 245.0375 15.56859543017625 SurfSat 1 43614U 18070B 18340.84772727 .00002717 00000-0 76042-4 0 9994 2 43614 093.0355 283.5221 0015671 343.1205 016.9524 15.36608252012633 CP-7 DAVE 1 43615U 18070C 18341.36854257 .00002392 00000-0 66993-4 0 9995 2 43615 93.0357 283.7384 0015575 340.7184 19.3477 15.36600840 12718 ELFIN-B 1 43616U 18070D 18341.49281298 .00003509 00000-0 97466-4 0 9999 2 43616 93.0329 283.7542 0016873 343.5209 16.5493 15.36801671 12739 ELFIN-A 1 43617U 18070E 18341.49110189 .00003616 00000-0 10039-3 0 9999 2 43617 93.0380 283.8197 0015732 340.1766 19.8873 15.36835406 12739 STARS-Me Mother 1 43640U 98067PQ 18340.89954940 .00006344 00000-0 98385-4 0 9995 2 43640 051.6391 237.5500 0006668 094.1347 266.0407 15.55402076009537 CubeBel 1 1 43666U 18083E 18341.47378166 .00001095 00000-0 58467-4 0 9993 2 43666 97.5367 2.1426 0016374 134.3870 358.7419 15.17167323 5981 Changshagaoxin 1 43669U 18083H 18341.53399298 .00000806 00000-0 44838-4 0 9998 2 43669 97.5221 2.0874 0012389 126.3636 233.8742 15.16447718 5959 Ten-Koh 1 43677U 18084G 18341.29952373 -.00000285 00000-0 -23624-4 0 9993 2 43677 97.8380 91.5118 0015684 195.4989 164.5738 14.90102502 5810 Diwata-2 1 43678U 18084H 18341.53091507 -.00000214 00000-0 -15666-4 0 9993 2 43678 97.8375 91.8354 0008909 216.1973 143.8667 14.91507285 5859 IRVINE 01 1 43693U 18088D 18341.51364010 .00002442 00000-0 10940-3 0 9996 2 43693 85.0373 85.5986 0019246 176.1665 183.9728 15.20528479 4003 OBJECT A 1 43758U 18099A 18340.89669225 -.00020822 00000-0 -18920-2 0 9995 2 43758 97.7695 50.0183 0011422 247.4327 112.5916 14.95232092 471 JY1Sat 1 43759U 18099B 18341.49946761 .00000040 00000-0 89929-5 0 9994 2 43759 97.7691 50.6228 0012976 242.2711 117.7194 14.95042330 557 OBJECT C 1 43760U 18099C 18340.69642371 .00000864 00000-0 84225-4 0 9994 2 43760 097.7691 049.8209 0012152 251.1195 108.8707 14.94991097000440 OBJECT D 1 43761U 18099D 18341.16502297 -.00000285 00000-0 -20747-4 0 9998 2 43761 97.7677 50.2866 0012913 247.9138 112.0712 14.94949771 507 OBJECT E 1 43762U 18099E 18341.29793832 .00000166 00000-0 20316-4 0 9998 2 43762 97.7696 50.4210 0011588 250.6802 109.3165 14.95357901 533 ESEO 1 43763U 18099F 18340.71654919 .00001025 00000-0 97847-4 0 9995 2 43763 97.7688 49.8437 0011624 253.6583 219.5602 14.95465542 449 OBJECT G 1 43764U 18099G 18340.71616848 -.00000081 00000-0 -19426-5 0 9996 2 43764 97.7707 49.8431 0014292 258.4989 219.0525 14.96095374 434 OBJECT H 1 43765U 18099H 18341.43034812 .00000050 00000-0 97399-5 0 9991 2 43765 97.7675 50.5561 0013394 260.2967 99.6742 14.95958581 543 OBJECT J 1 43766U 18099J 18340.69747933 -.00000058 00000-0 00000 0 0 9990 2 43766 97.7675 49.8291 0010048 236.1730 123.8531 14.94412088 449 OBJECT K 1 43767U 18099K 18341.16604007 -.00000086 00000-0 -26085-5 0 9997 2 43767 97.7676 50.2850 0010551 246.1771 113.8344 14.94485769 518 OBJECT L 1 43768U 18099L 18341.09921605 .00000104 00000-0 15002-4 0 9991 2 43768 97.7676 50.2213 0010202 246.4864 113.5285 14.94414637 226 AO-95 1 43774U 18099S 18341.29932070 .00000221 00000-0 25636-4 0 9992 2 43774 97.7717 50.4163 0011661 246.5283 113.4712 14.94762703 528 OBJECT T 1 43775U 18099T 18340.62973674 .00005149 00000-0 47712-3 0 9996 2 43775 97.7717 49.7521 0013136 239.8015 120.1187 14.94851909 411 MOVE-II 1 43776U 18099U 18341.03136130 .00005237 00000-0 48504-3 0 9999 2 43776 97.7704 50.1672 0012656 258.7581 101.1972 14.94867784 470 PWSat 2 1 43780U 18099Y 18340.69668349 -.00000372 00000-0 -28802-4 0 9994 2 43780 97.7683 49.8182 0011803 257.1086 102.8804 14.94846885 424 ITASat 1 1 43787U 18099AF 18340.83020689 -.00000462 00000-0 -36847-4 0 9994 2 43787 097.7614 049.9539 0012243 251.7778 108.2107 14.95029661000465 MinXSS 2-CSIM 1 43793U 18099AM 18340.82931027 -.00000058 00000-0 00000 0 0 9994 2 43793 97.7626 49.9425 0011170 253.6956 106.3025 14.95473703 183 RANGE A 1 43798U 18099AS 18340.69517377 .00001054 00000-0 10000-3 0 9993 2 43798 097.7677 049.8241 0010907 233.8312 126.1884 14.95656911000426 /EX